Time,TemperatureF,DewpointF,PressureIn,WindDirection,WindDirectionDegrees,WindSpeedMPH,WindSpeedGustMPH,Humidity,HourlyPrecipIn,Conditions,Clouds,dailyrainin,SoftwareType,DateUTC
2013-02-17 03:50:00,23.5,4.3,29.18,North,0,0.0,0.0,43,0.00,,---,0.00,VWS V14.00,2013-02-17 08:50:00,
2013-02-17 03:56:00,23.4,4.7,29.18,North,0,0.0,0.0,44,0.00,,---,0.00,VWS V14.00,2013-02-17 08:56:00,
2013-02-17 04:02:00,23.2,4.0,29.21,North,0,0.0,0.0,43,0.00,,---,0.00,VWS V14.00,2013-02-17 09:02:00,
2013-02-17 04:07:00,23.2,4.5,29.21,North,0,0.0,0.0,44,0.00,,---,0.00,VWS V14.00,2013-02-17 09:07:00,
2013-02-17 04:12:00,23.0,3.8,29.21,North,0,0.0,0.0,43,0.00,,---,0.00,VWS V14.00,2013-02-17 09:12:00,
2013-02-17 04:17:00,23.0,4.3,29.18,North,0,0.0,0.0,44,0.00,,---,0.00,VWS V14.00,2013-02-17 09:17:00,
2013-02-17 04:22:00,23.0,3.8,29.18,North,0,0.0,0.0,43,0.00,,---,0.00,VWS V14.00,2013-02-17 09:22:00,
2013-02-17 04:27:00,23.0,3.8,29.18,North,0,0.0,0.0,43,0.00,,---,0.00,VWS V14.00,2013-02-17 09:27:00,
2013-02-17 04:33:00,22.8,3.7,29.18,North,0,0.0,0.0,43,0.00,,---,0.00,VWS V14.00,2013-02-17 09:33:00,
2013-02-17 04:38:00,22.8,4.2,29.18,North,0,0.0,0.0,44,0.00,,---,0.00,VWS V14.00,2013-02-17 09:38:00,
2013-02-17 04:43:00,22.6,4.0,29.18,North,0,0.0,0.0,44,0.00,,---,0.00,VWS V14.00,2013-02-17 09:43:00,
2013-02-17 04:49:00,22.6,4.5,29.18,North,0,0.0,0.0,45,0.00,,---,0.00,VWS V14.00,2013-02-17 09:49:00,
2013-02-17 04:54:00,22.5,4.3,29.18,North,0,0.0,0.0,45,0.00,,---,0.00,VWS V14.00,2013-02-17 09:54:00,
2013-02-17 04:59:00,22.5,4.8,29.18,North,0,0.0,0.0,46,0.00,,---,0.00,VWS V14.00,2013-02-17 09:59:00,
2013-02-17 05:04:00,22.3,4.7,29.18,North,0,0.0,0.0,46,0.00,,---,0.00,VWS V14.00,2013-02-17 10:04:00,
2013-02-17 05:09:00,22.1,4.5,29.18,North,0,0.0,0.0,46,0.00,,---,0.00,VWS V14.00,2013-02-17 10:09:00,
2013-02-17 05:15:00,21.9,4.8,29.18,North,0,0.0,0.0,47,0.00,,---,0.00,VWS V14.00,2013-02-17 10:15:00,
2013-02-17 05:20:00,21.6,5.4,29.15,North,0,0.0,0.0,49,0.00,,---,0.00,VWS V14.00,2013-02-17 10:20:00,
2013-02-17 05:25:00,21.4,6.1,29.15,North,0,0.0,0.0,51,0.00,,---,0.00,VWS V14.00,2013-02-17 10:25:00,
2013-02-17 05:31:00,21.2,6.8,29.15,North,0,0.0,0.0,53,0.00,,---,0.00,VWS V14.00,2013-02-17 10:31:00,
2013-02-17 05:37:00,21.0,7.4,29.15,North,0,0.0,0.0,55,0.00,,---,0.00,VWS V14.00,2013-02-17 10:37:00,
2013-02-17 05:42:00,21.0,7.8,29.15,North,0,0.0,0.0,56,0.00,,---,0.00,VWS V14.00,2013-02-17 10:42:00,
2013-02-17 05:48:00,20.7,8.2,29.15,North,0,0.0,0.0,58,0.00,,---,0.00,VWS V14.00,2013-02-17 10:48:00,
2013-02-17 05:53:00,20.7,9.0,29.15,North,0,0.0,0.0,60,0.00,,---,0.00,VWS V14.00,2013-02-17 10:53:00,
2013-02-17 05:58:00,20.7,9.0,29.15,North,0,0.0,0.0,60,0.00,,---,0.00,VWS V14.00,2013-02-17 10:58:00,
2013-02-17 06:03:00,20.7,9.4,29.12,North,0,0.0,0.0,61,0.00,,---,0.00,VWS V14.00,2013-02-17 11:03:00,
2013-02-17 06:08:00,20.3,9.4,29.12,North,0,0.0,0.0,62,0.00,,---,0.00,VWS V14.00,2013-02-17 11:08:00,
2013-02-17 06:13:00,20.1,8.8,29.12,North,0,0.0,0.0,61,0.00,,---,0.00,VWS V14.00,2013-02-17 11:13:00,
2013-02-17 06:19:00,19.9,8.7,29.12,North,0,0.0,0.0,61,0.00,,---,0.00,VWS V14.00,2013-02-17 11:19:00,
2013-02-17 06:24:00,19.9,8.7,29.12,North,0,0.0,0.0,61,0.00,,---,0.00,VWS V14.00,2013-02-17 11:24:00,
2013-02-17 06:29:00,19.8,8.9,29.12,North,0,0.0,0.0,62,0.00,,---,0.00,VWS V14.00,2013-02-17 11:29:00,
2013-02-17 06:34:00,19.6,8.3,29.12,North,0,0.0,0.0,61,0.00,,---,0.00,VWS V14.00,2013-02-17 11:34:00,
2013-02-17 06:39:00,19.4,8.2,29.12,North,0,0.0,0.0,61,0.00,,---,0.00,VWS V14.00,2013-02-17 11:39:00,
2013-02-17 06:45:00,19.2,8.4,29.12,North,0,0.0,0.0,62,0.00,,---,0.00,VWS V14.00,2013-02-17 11:45:00,
2013-02-17 06:50:00,19.2,8.4,29.12,North,0,0.0,0.0,62,0.00,,---,0.00,VWS V14.00,2013-02-17 11:50:00,
2013-02-17 06:55:00,19.2,8.4,29.12,North,0,0.0,0.0,62,0.00,,---,0.00,VWS V14.00,2013-02-17 11:55:00,
2013-02-17 07:00:00,19.0,7.8,29.12,North,0,0.0,0.0,61,0.00,,---,0.00,VWS V14.00,2013-02-17 12:00:00,
2013-02-17 07:06:00,19.0,7.8,29.12,North,0,0.0,0.0,61,0.00,,---,0.00,VWS V14.00,2013-02-17 12:06:00,
2013-02-17 07:12:00,19.0,7.8,29.12,North,0,0.0,0.0,61,0.00,,---,0.00,VWS V14.00,2013-02-17 12:12:00,
2013-02-17 07:17:00,19.0,7.4,29.09,North,0,0.0,0.0,60,0.00,,---,0.00,VWS V14.00,2013-02-17 12:17:00,
2013-02-17 07:22:00,19.0,7.8,29.09,North,0,0.0,0.0,61,0.00,,---,0.00,VWS V14.00,2013-02-17 12:22:00,
2013-02-17 07:27:00,19.2,8.0,29.09,North,0,0.0,0.0,61,0.00,,---,0.00,VWS V14.00,2013-02-17 12:27:00,
2013-02-17 07:32:00,19.2,8.0,29.09,North,0,0.0,0.0,61,0.00,,---,0.00,VWS V14.00,2013-02-17 12:32:00,
2013-02-17 07:38:00,19.0,7.4,29.09,North,0,0.0,0.0,60,0.00,,---,0.00,VWS V14.00,2013-02-17 12:38:00,
2013-02-17 07:43:00,19.0,7.4,29.09,North,0,0.0,0.0,60,0.00,,---,0.00,VWS V14.00,2013-02-17 12:43:00,
2013-02-17 07:48:00,19.0,7.4,29.09,North,0,0.0,0.0,60,0.00,,---,0.00,VWS V14.00,2013-02-17 12:48:00,
2013-02-17 07:53:00,19.0,7.4,29.09,North,0,0.0,0.0,60,0.00,,---,0.00,VWS V14.00,2013-02-17 12:53:00,
2013-02-17 07:59:00,19.0,7.4,29.09,North,0,0.0,0.0,60,0.00,,---,0.00,VWS V14.00,2013-02-17 12:59:00,
2013-02-17 08:04:00,19.0,8.2,29.06,North,0,0.0,0.0,62,0.00,,---,0.00,VWS V14.00,2013-02-17 13:04:00,
2013-02-17 08:09:00,19.0,8.2,29.06,North,0,0.0,0.0,62,0.00,,---,0.00,VWS V14.00,2013-02-17 13:09:00,
2013-02-17 08:15:00,19.0,8.5,29.06,North,0,0.0,0.0,63,0.00,,---,0.00,VWS V14.00,2013-02-17 13:15:00,
2013-02-17 08:21:00,19.0,7.8,29.06,North,0,0.0,0.0,61,0.00,,---,0.00,VWS V14.00,2013-02-17 13:21:00,
2013-02-17 08:26:00,19.0,7.8,29.06,North,0,0.0,0.0,61,0.00,,---,0.00,VWS V14.00,2013-02-17 13:26:00,
2013-02-17 08:31:00,19.0,7.4,29.06,North,0,0.0,0.0,60,0.00,,---,0.00,VWS V14.00,2013-02-17 13:31:00,
2013-02-17 08:36:00,18.9,6.9,29.06,North,0,0.0,0.0,59,0.00,,---,0.00,VWS V14.00,2013-02-17 13:36:00,
2013-02-17 08:41:00,19.0,7.1,29.06,North,0,0.0,0.0,59,0.00,,---,0.00,VWS V14.00,2013-02-17 13:41:00,
2013-02-17 08:47:00,19.0,6.7,29.03,North,0,0.0,0.0,58,0.00,,---,0.00,VWS V14.00,2013-02-17 13:47:00,
2013-02-17 08:52:00,19.0,6.3,29.03,North,0,0.0,0.0,57,0.00,,---,0.00,VWS V14.00,2013-02-17 13:52:00,
2013-02-17 08:57:00,19.2,6.9,29.03,North,0,0.0,0.0,58,0.00,,---,0.00,VWS V14.00,2013-02-17 13:57:00,
2013-02-17 09:02:00,19.2,6.5,29.03,North,0,0.0,0.0,57,0.00,,---,0.00,VWS V14.00,2013-02-17 14:02:00,
2013-02-17 09:07:00,19.2,6.1,29.03,North,0,0.0,0.0,56,0.00,,---,0.00,VWS V14.00,2013-02-17 14:07:00,
2013-02-17 09:13:00,19.2,6.5,29.03,North,0,0.0,0.0,57,0.00,,---,0.00,VWS V14.00,2013-02-17 14:13:00,
2013-02-17 09:18:00,19.2,6.1,29.03,North,0,0.0,0.0,56,0.00,,---,0.00,VWS V14.00,2013-02-17 14:18:00,
2013-02-17 09:23:00,19.2,6.1,29.03,North,0,0.0,0.0,56,0.00,,---,0.00,VWS V14.00,2013-02-17 14:23:00,
2013-02-17 09:28:00,19.2,6.1,29.03,North,0,0.0,0.0,56,0.00,,---,0.00,VWS V14.00,2013-02-17 14:28:00,
2013-02-17 09:34:00,19.2,6.1,29.00,North,0,0.0,0.0,56,0.00,,---,0.00,VWS V14.00,2013-02-17 14:34:00,
2013-02-17 09:39:00,19.4,6.7,29.00,North,0,0.0,0.0,57,0.00,,---,0.00,VWS V14.00,2013-02-17 14:39:00,
2013-02-17 09:44:00,19.2,6.1,29.00,North,0,0.0,0.0,56,0.00,,---,0.00,VWS V14.00,2013-02-17 14:44:00,
2013-02-17 09:49:00,19.4,6.3,29.00,North,0,0.0,0.0,56,0.00,,---,0.00,VWS V14.00,2013-02-17 14:49:00,
2013-02-17 09:55:00,19.4,6.3,29.00,North,0,0.0,0.0,56,0.00,,---,0.00,VWS V14.00,2013-02-17 14:55:00,
2013-02-17 10:00:00,19.4,6.3,29.00,North,0,0.0,0.0,56,0.00,,---,0.00,VWS V14.00,2013-02-17 15:00:00,
2013-02-17 10:05:00,19.8,6.2,29.00,North,0,0.0,0.0,55,0.00,,---,0.00,VWS V14.00,2013-02-17 15:05:00,
2013-02-17 10:11:00,19.9,6.0,29.00,North,0,0.0,0.0,54,0.00,,---,0.00,VWS V14.00,2013-02-17 15:11:00,
2013-02-17 10:16:00,20.1,6.2,29.00,North,0,0.0,0.0,54,0.00,,---,0.00,VWS V14.00,2013-02-17 15:16:00,
2013-02-17 10:22:00,20.3,6.3,29.00,North,0,0.0,0.0,54,0.00,,---,0.00,VWS V14.00,2013-02-17 15:22:00,
2013-02-17 10:27:00,20.5,6.5,29.00,North,0,0.0,0.0,54,0.00,,---,0.00,VWS V14.00,2013-02-17 15:27:00,
2013-02-17 10:32:00,20.5,6.5,29.00,North,0,0.0,0.0,54,0.00,,---,0.00,VWS V14.00,2013-02-17 15:32:00,
2013-02-17 10:37:00,20.7,6.2,29.00,North,0,0.0,0.0,53,0.00,,---,0.00,VWS V14.00,2013-02-17 15:37:00,
2013-02-17 10:43:00,20.8,6.0,29.00,North,0,0.0,0.0,52,0.00,,---,0.00,VWS V14.00,2013-02-17 15:43:00,
2013-02-17 10:48:00,20.7,5.0,29.00,North,0,0.0,0.0,50,0.00,,---,0.00,VWS V14.00,2013-02-17 15:48:00,
2013-02-17 10:53:00,20.8,4.2,29.00,North,0,0.0,0.0,48,0.00,,---,0.00,VWS V14.00,2013-02-17 15:53:00,
2013-02-17 10:58:00,21.4,4.8,29.00,North,0,0.0,0.0,48,0.00,,---,0.00,VWS V14.00,2013-02-17 15:58:00,
2013-02-17 11:04:00,21.6,4.0,29.00,North,0,0.0,0.0,46,0.00,,---,0.00,VWS V14.00,2013-02-17 16:04:00,
2013-02-17 11:09:00,21.6,3.0,29.00,North,0,0.0,0.0,44,0.00,,---,0.00,VWS V14.00,2013-02-17 16:09:00,
2013-02-17 11:14:00,21.6,2.5,29.00,North,0,0.0,0.0,43,0.00,,---,0.00,VWS V14.00,2013-02-17 16:14:00,
2013-02-17 11:20:00,21.7,2.7,29.00,North,0,0.0,0.0,43,0.00,,---,0.00,VWS V14.00,2013-02-17 16:20:00,
2013-02-17 11:26:00,22.1,2.5,29.00,North,0,0.0,0.0,42,0.00,,---,0.00,VWS V14.00,2013-02-17 16:26:00,
2013-02-17 11:31:00,22.3,2.7,29.00,North,0,0.0,0.0,42,0.00,,---,0.00,VWS V14.00,2013-02-17 16:31:00,
2013-02-17 11:36:00,22.6,2.5,29.00,North,0,0.0,0.0,41,0.00,,---,0.00,VWS V14.00,2013-02-17 16:36:00,
2013-02-17 11:41:00,23.2,2.5,29.00,North,0,0.0,0.0,40,0.00,,---,0.00,VWS V14.00,2013-02-17 16:41:00,
2013-02-17 11:46:00,23.5,2.2,29.00,North,0,0.0,0.0,39,0.00,,---,0.00,VWS V14.00,2013-02-17 16:46:00,
2013-02-17 11:51:00,23.5,1.7,29.00,North,0,0.0,0.0,38,0.00,,---,0.00,VWS V14.00,2013-02-17 16:51:00,
2013-02-17 11:57:00,23.9,1.4,29.00,North,0,0.0,0.0,37,0.00,,---,0.00,VWS V14.00,2013-02-17 16:57:00,
2013-02-17 12:02:00,24.1,1.0,29.00,North,0,0.0,0.0,36,0.00,,---,0.00,VWS V14.00,2013-02-17 17:02:00,
2013-02-17 12:07:00,24.1,1.0,29.00,North,0,0.0,0.0,36,0.00,,---,0.00,VWS V14.00,2013-02-17 17:07:00,
2013-02-17 12:13:00,24.1,0.4,29.00,North,0,0.0,0.0,35,0.00,,---,0.00,VWS V14.00,2013-02-17 17:13:00,
2013-02-17 12:18:00,23.7,0.1,29.00,North,0,0.0,0.0,35,0.00,,---,0.00,VWS V14.00,2013-02-17 17:18:00,
2013-02-17 12:23:00,24.1,0.4,29.00,North,0,0.0,0.0,35,0.00,,---,0.00,VWS V14.00,2013-02-17 17:23:00,
2013-02-17 12:28:00,23.9,0.2,29.00,North,0,0.0,0.0,35,0.00,,---,0.00,VWS V14.00,2013-02-17 17:28:00,
2013-02-17 12:34:00,24.4,0.7,29.00,North,0,0.0,0.0,35,0.00,,---,0.00,VWS V14.00,2013-02-17 17:34:00,
2013-02-17 12:39:00,24.4,0.1,29.00,North,0,0.0,0.0,34,0.00,,---,0.00,VWS V14.00,2013-02-17 17:39:00,
2013-02-17 12:44:00,24.8,0.4,29.00,North,0,0.0,0.0,34,0.00,,---,0.00,VWS V14.00,2013-02-17 17:44:00,
2013-02-17 12:49:00,24.8,-0.2,29.00,North,0,0.0,0.0,33,0.00,,---,0.00,VWS V14.00,2013-02-17 17:49:00,
2013-02-17 12:55:00,24.4,-0.5,29.00,North,0,0.0,0.0,33,0.00,,---,0.00,VWS V14.00,2013-02-17 17:55:00,
2013-02-17 13:00:00,24.4,-0.5,29.00,North,0,0.0,0.0,33,0.00,,---,0.00,VWS V14.00,2013-02-17 18:00:00,
2013-02-17 13:06:00,25.2,0.1,29.00,North,0,0.0,0.0,33,0.00,,---,0.00,VWS V14.00,2013-02-17 18:06:00,
2013-02-17 13:11:00,25.0,-0.1,29.00,North,0,0.0,0.0,33,0.00,,---,0.00,VWS V14.00,2013-02-17 18:11:00,
2013-02-17 13:16:00,24.8,-0.2,29.00,North,0,0.0,0.0,33,0.00,,---,0.00,VWS V14.00,2013-02-17 18:16:00,
2013-02-17 13:21:00,24.6,-0.4,29.00,North,0,0.0,0.0,33,0.00,,---,0.00,VWS V14.00,2013-02-17 18:21:00,
2013-02-17 13:27:00,24.4,-0.5,29.00,North,0,0.0,0.0,33,0.00,,---,0.00,VWS V14.00,2013-02-17 18:27:00,
2013-02-17 13:32:00,24.6,-0.4,29.00,North,0,0.0,0.0,33,0.00,,---,0.00,VWS V14.00,2013-02-17 18:32:00,
2013-02-17 13:37:00,24.6,-0.4,29.00,North,0,0.0,0.0,33,0.00,,---,0.00,VWS V14.00,2013-02-17 18:37:00,
2013-02-17 13:42:00,24.4,-0.5,29.00,North,0,0.0,0.0,33,0.00,,---,0.00,VWS V14.00,2013-02-17 18:42:00,
2013-02-17 13:48:00,24.4,-0.5,29.00,North,0,0.0,0.0,33,0.00,,---,0.00,VWS V14.00,2013-02-17 18:48:00,
2013-02-17 13:53:00,24.4,-0.5,29.00,North,0,0.0,0.0,33,0.00,,---,0.00,VWS V14.00,2013-02-17 18:53:00,
2013-02-17 13:58:00,24.3,-0.7,29.00,North,0,0.0,0.0,33,0.00,,---,0.00,VWS V14.00,2013-02-17 18:58:00,
2013-02-17 14:04:00,23.5,-1.3,29.03,North,0,0.0,0.0,33,0.00,,---,0.00,VWS V14.00,2013-02-17 19:04:00,
2013-02-17 14:10:00,23.5,-1.3,29.03,North,0,0.0,0.0,33,0.00,,---,0.00,VWS V14.00,2013-02-17 19:10:00,
2013-02-17 14:15:00,23.4,-1.5,29.03,North,0,0.0,0.0,33,0.00,,---,0.00,VWS V14.00,2013-02-17 19:15:00,
2013-02-17 14:20:00,23.4,-1.5,29.03,North,0,0.0,0.0,33,0.00,,---,0.00,VWS V14.00,2013-02-17 19:20:00,
2013-02-17 14:25:00,23.9,-1.0,29.03,North,0,0.0,0.0,33,0.00,,---,0.00,VWS V14.00,2013-02-17 19:25:00,
2013-02-17 14:30:00,24.1,-0.9,29.03,North,0,0.0,0.0,33,0.00,,---,0.00,VWS V14.00,2013-02-17 19:30:00,
2013-02-17 14:35:00,23.4,-1.5,29.03,North,0,0.0,0.0,33,0.00,,---,0.00,VWS V14.00,2013-02-17 19:35:00,
2013-02-17 14:41:00,23.4,-1.5,29.03,North,0,0.0,0.0,33,0.00,,---,0.00,VWS V14.00,2013-02-17 19:41:00,
2013-02-17 14:46:00,23.4,-1.5,29.03,North,0,0.0,0.0,33,0.00,,---,0.00,VWS V14.00,2013-02-17 19:46:00,
2013-02-17 14:51:00,23.2,-1.6,29.03,North,0,0.0,0.0,33,0.00,,---,0.00,VWS V14.00,2013-02-17 19:51:00,
2013-02-17 14:56:00,22.6,-2.1,29.03,North,0,0.0,0.0,33,0.00,,---,0.00,VWS V14.00,2013-02-17 19:56:00,
2013-02-17 15:02:00,23.0,-1.8,29.03,North,0,0.0,0.0,33,0.00,,---,0.00,VWS V14.00,2013-02-17 20:02:00,
2013-02-17 15:07:00,23.2,-1.6,29.03,North,0,0.0,0.0,33,0.00,,---,0.00,VWS V14.00,2013-02-17 20:07:00,
2013-02-17 15:12:00,23.4,-1.5,29.03,North,0,0.0,0.0,33,0.00,,---,0.00,VWS V14.00,2013-02-17 20:12:00,
2013-02-17 15:17:00,23.2,-1.6,29.06,North,0,0.0,0.0,33,0.00,,---,0.00,VWS V14.00,2013-02-17 20:17:00,
2013-02-17 15:23:00,23.4,-1.5,29.06,North,0,0.0,0.0,33,0.00,,---,0.00,VWS V14.00,2013-02-17 20:23:00,
2013-02-17 15:28:00,23.2,-1.6,29.06,North,0,0.0,0.0,33,0.00,,---,0.00,VWS V14.00,2013-02-17 20:28:00,
2013-02-17 15:33:00,23.2,-1.6,29.06,North,0,0.0,0.0,33,0.00,,---,0.00,VWS V14.00,2013-02-17 20:33:00,
2013-02-17 15:39:00,23.4,-2.1,29.06,North,0,0.0,0.0,32,0.00,,---,0.00,VWS V14.00,2013-02-17 20:39:00,
2013-02-17 15:45:00,23.4,-2.1,29.06,North,0,0.0,0.0,32,0.00,,---,0.00,VWS V14.00,2013-02-17 20:45:00,
2013-02-17 15:50:00,23.5,-2.0,29.06,North,0,0.0,0.0,32,0.00,,---,0.00,VWS V14.00,2013-02-17 20:50:00,
2013-02-17 15:55:00,23.5,-2.0,29.06,North,0,0.0,0.0,32,0.00,,---,0.00,VWS V14.00,2013-02-17 20:55:00,
2013-02-17 16:00:00,23.4,-2.1,29.06,North,0,0.0,0.0,32,0.00,,---,0.00,VWS V14.00,2013-02-17 21:00:00,
2013-02-17 16:05:00,23.2,-2.3,29.06,North,0,0.0,0.0,32,0.00,,---,0.00,VWS V14.00,2013-02-17 21:05:00,
2013-02-17 16:10:00,23.0,-1.8,29.06,North,0,0.0,0.0,33,0.00,,---,0.00,VWS V14.00,2013-02-17 21:10:00,
2013-02-17 16:16:00,23.0,-1.8,29.06,North,0,0.0,0.0,33,0.00,,---,0.00,VWS V14.00,2013-02-17 21:16:00,
2013-02-17 16:21:00,22.8,-2.0,29.09,North,0,0.0,0.0,33,0.00,,---,0.00,VWS V14.00,2013-02-17 21:21:00,
2013-02-17 16:26:00,22.8,-2.0,29.09,North,0,0.0,0.0,33,0.00,,---,0.00,VWS V14.00,2013-02-17 21:26:00,
2013-02-17 16:31:00,22.6,-2.1,29.09,North,0,0.0,0.0,33,0.00,,---,0.00,VWS V14.00,2013-02-17 21:31:00,
2013-02-17 16:37:00,22.5,-2.3,29.09,North,0,0.0,0.0,33,0.00,,---,0.00,VWS V14.00,2013-02-17 21:37:00,
2013-02-17 16:42:00,22.5,-2.3,29.09,North,0,0.0,0.0,33,0.00,,---,0.00,VWS V14.00,2013-02-17 21:42:00,
2013-02-17 16:47:00,22.3,-2.4,29.09,North,0,0.0,0.0,33,0.00,,---,0.00,VWS V14.00,2013-02-17 21:47:00,
2013-02-17 16:53:00,22.1,-2.6,29.09,North,0,0.0,0.0,33,0.00,,---,0.00,VWS V14.00,2013-02-17 21:53:00,
2013-02-17 16:58:00,22.1,-2.6,29.09,North,0,0.0,0.0,33,0.00,,---,0.00,VWS V14.00,2013-02-17 21:58:00,
2013-02-17 17:03:00,21.9,-2.8,29.09,North,0,0.0,0.0,33,0.00,,---,0.00,VWS V14.00,2013-02-17 22:03:00,
2013-02-17 17:08:00,21.9,-2.8,29.09,North,0,0.0,0.0,33,0.00,,---,0.00,VWS V14.00,2013-02-17 22:08:00,
2013-02-17 17:14:00,21.7,-2.9,29.09,North,0,0.0,0.0,33,0.00,,---,0.00,VWS V14.00,2013-02-17 22:14:00,
2013-02-17 17:20:00,21.7,-2.9,29.12,North,0,0.0,0.0,33,0.00,,---,0.00,VWS V14.00,2013-02-17 22:20:00,
2013-02-17 17:25:00,21.7,-2.9,29.12,North,0,0.0,0.0,33,0.00,,---,0.00,VWS V14.00,2013-02-17 22:25:00,
2013-02-17 17:30:00,21.6,-3.1,29.12,North,0,0.0,0.0,33,0.00,,---,0.00,VWS V14.00,2013-02-17 22:30:00,
2013-02-17 17:35:00,21.6,-3.1,29.12,North,0,0.0,0.0,33,0.00,,---,0.00,VWS V14.00,2013-02-17 22:35:00,
2013-02-17 17:40:00,21.6,-3.1,29.12,North,0,0.0,0.0,33,0.00,,---,0.00,VWS V14.00,2013-02-17 22:40:00,
2013-02-17 17:45:00,21.6,-3.1,29.12,North,0,0.0,0.0,33,0.00,,---,0.00,VWS V14.00,2013-02-17 22:45:00,
2013-02-17 17:51:00,21.4,-3.2,29.12,North,0,0.0,0.0,33,0.00,,---,0.00,VWS V14.00,2013-02-17 22:51:00,
2013-02-17 17:56:00,21.6,-3.1,29.12,North,0,0.0,0.0,33,0.00,,---,0.00,VWS V14.00,2013-02-17 22:56:00,
2013-02-17 18:02:00,21.4,-3.2,29.12,North,0,0.0,0.0,33,0.00,,---,0.00,VWS V14.00,2013-02-17 23:02:00,
2013-02-17 18:07:00,21.6,-3.1,29.12,North,0,0.0,0.0,33,0.00,,---,0.00,VWS V14.00,2013-02-17 23:07:00,
2013-02-17 18:12:00,21.6,-3.1,29.12,North,0,0.0,0.0,33,0.00,,---,0.00,VWS V14.00,2013-02-17 23:12:00,
2013-02-17 18:17:00,21.6,-3.1,29.12,North,0,0.0,0.0,33,0.00,,---,0.00,VWS V14.00,2013-02-17 23:17:00,
2013-02-17 18:22:00,21.6,-3.1,29.12,North,0,0.0,0.0,33,0.00,,---,0.00,VWS V14.00,2013-02-17 23:22:00,
2013-02-17 18:28:00,21.6,-3.1,29.12,North,0,0.0,0.0,33,0.00,,---,0.00,VWS V14.00,2013-02-17 23:28:00,
2013-02-17 18:33:00,21.4,-3.2,29.12,North,0,0.0,0.0,33,0.00,,---,0.00,VWS V14.00,2013-02-17 23:33:00,
2013-02-17 18:38:00,21.4,-3.2,29.12,North,0,0.0,0.0,33,0.00,,---,0.00,VWS V14.00,2013-02-17 23:38:00,
2013-02-17 18:43:00,21.4,-3.2,29.12,North,0,0.0,0.0,33,0.00,,---,0.00,VWS V14.00,2013-02-17 23:43:00,
2013-02-17 18:49:00,21.4,-3.2,29.12,North,0,0.0,0.0,33,0.00,,---,0.00,VWS V14.00,2013-02-17 23:49:00,
2013-02-17 18:55:00,21.4,-3.2,29.12,North,0,0.0,0.0,33,0.00,,---,0.00,VWS V14.00,2013-02-17 23:55:00,
2013-02-17 19:00:00,21.4,-3.2,29.12,North,0,0.0,0.0,33,0.00,,---,0.00,VWS V14.00,2013-02-18 00:00:00,
2013-02-17 19:05:00,21.2,-3.4,29.15,North,0,0.0,0.0,33,0.00,,---,0.00,VWS V14.00,2013-02-18 00:05:00,
2013-02-17 19:10:00,21.4,-3.2,29.15,North,0,0.0,0.0,33,0.00,,---,0.00,VWS V14.00,2013-02-18 00:10:00,
2013-02-17 19:15:00,21.2,-3.4,29.15,North,0,0.0,0.0,33,0.00,,---,0.00,VWS V14.00,2013-02-18 00:15:00,
2013-02-17 19:21:00,21.2,-3.4,29.15,North,0,0.0,0.0,33,0.00,,---,0.00,VWS V14.00,2013-02-18 00:21:00,
2013-02-17 19:26:00,21.2,-3.4,29.15,North,0,0.0,0.0,33,0.00,,---,0.00,VWS V14.00,2013-02-18 00:26:00,
2013-02-17 19:31:00,21.0,-3.6,29.15,North,0,0.0,0.0,33,0.00,,---,0.00,VWS V14.00,2013-02-18 00:31:00,
2013-02-17 19:36:00,21.2,-3.4,29.15,North,0,0.0,0.0,33,0.00,,---,0.00,VWS V14.00,2013-02-18 00:36:00,
2013-02-17 19:42:00,21.0,-3.6,29.15,North,0,0.0,0.0,33,0.00,,---,0.00,VWS V14.00,2013-02-18 00:42:00,
2013-02-17 19:47:00,20.8,-3.7,29.15,North,0,0.0,0.0,33,0.00,,---,0.00,VWS V14.00,2013-02-18 00:47:00,
2013-02-17 19:52:00,20.8,-3.7,29.15,North,0,0.0,0.0,33,0.00,,---,0.00,VWS V14.00,2013-02-18 00:52:00,
2013-02-17 19:57:00,20.8,-3.7,29.15,North,0,0.0,0.0,33,0.00,,---,0.00,VWS V14.00,2013-02-18 00:57:00,
2013-02-17 20:03:00,20.7,-3.9,29.15,North,0,0.0,0.0,33,0.00,,---,0.00,VWS V14.00,2013-02-18 01:03:00,
2013-02-17 20:08:00,20.7,-3.9,29.15,North,0,0.0,0.0,33,0.00,,---,0.00,VWS V14.00,2013-02-18 01:08:00,
2013-02-17 20:13:00,20.5,-4.0,29.15,North,0,0.0,0.0,33,0.00,,---,0.00,VWS V14.00,2013-02-18 01:13:00,
2013-02-17 20:19:00,20.3,-4.2,29.15,North,0,0.0,0.0,33,0.00,,---,0.00,VWS V14.00,2013-02-18 01:19:00,
2013-02-17 20:24:00,20.3,-4.2,29.15,North,0,0.0,0.0,33,0.00,,---,0.00,VWS V14.00,2013-02-18 01:24:00,
2013-02-17 20:30:00,20.3,-4.2,29.15,North,0,0.0,0.0,33,0.00,,---,0.00,VWS V14.00,2013-02-18 01:30:00,
2013-02-17 20:35:00,20.1,-4.4,29.18,North,0,0.0,0.0,33,0.00,,---,0.00,VWS V14.00,2013-02-18 01:35:00,
2013-02-17 20:40:00,20.1,-4.4,29.18,North,0,0.0,0.0,33,0.00,,---,0.00,VWS V14.00,2013-02-18 01:40:00,
2013-02-17 20:45:00,19.9,-4.5,29.18,North,0,0.0,0.0,33,0.00,,---,0.00,VWS V14.00,2013-02-18 01:45:00,
2013-02-17 20:50:00,20.1,-4.4,29.18,North,0,0.0,0.0,33,0.00,,---,0.00,VWS V14.00,2013-02-18 01:50:00,
2013-02-17 20:56:00,19.9,-4.5,29.18,North,0,0.0,0.0,33,0.00,,---,0.00,VWS V14.00,2013-02-18 01:56:00,
2013-02-17 21:01:00,19.8,-4.7,29.18,North,0,0.0,0.0,33,0.00,,---,0.00,VWS V14.00,2013-02-18 02:01:00,
2013-02-17 21:06:00,19.8,-4.7,29.18,North,0,0.0,0.0,33,0.00,,---,0.00,VWS V14.00,2013-02-18 02:06:00,
2013-02-17 21:11:00,19.6,-4.8,29.18,North,0,0.0,0.0,33,0.00,,---,0.00,VWS V14.00,2013-02-18 02:11:00,
2013-02-17 21:17:00,19.4,-5.0,29.21,North,0,0.0,0.0,33,0.00,,---,0.00,VWS V14.00,2013-02-18 02:17:00,
2013-02-17 21:22:00,19.4,-5.0,29.21,North,0,0.0,0.0,33,0.00,,---,0.00,VWS V14.00,2013-02-18 02:22:00,
2013-02-17 21:27:00,19.2,-5.2,29.21,North,0,0.0,0.0,33,0.00,,---,0.00,VWS V14.00,2013-02-18 02:27:00,
2013-02-17 21:32:00,19.2,-5.2,29.21,North,0,0.0,0.0,33,0.00,,---,0.00,VWS V14.00,2013-02-18 02:32:00,
2013-02-17 21:38:00,19.0,-5.3,29.21,North,0,0.0,0.0,33,0.00,,---,0.00,VWS V14.00,2013-02-18 02:38:00,
2013-02-17 21:43:00,18.9,-5.5,29.21,North,0,0.0,0.0,33,0.00,,---,0.00,VWS V14.00,2013-02-18 02:43:00,
2013-02-17 21:48:00,18.7,-5.6,29.21,North,0,0.0,0.0,33,0.00,,---,0.00,VWS V14.00,2013-02-18 02:48:00,
2013-02-17 21:54:00,18.7,-5.6,29.21,North,0,0.0,0.0,33,0.00,,---,0.00,VWS V14.00,2013-02-18 02:54:00,
2013-02-17 21:59:00,18.7,-5.6,29.21,North,0,0.0,0.0,33,0.00,,---,0.00,VWS V14.00,2013-02-18 02:59:00,
2013-02-17 22:05:00,18.5,-5.8,29.21,North,0,0.0,0.0,33,0.00,,---,0.00,VWS V14.00,2013-02-18 03:05:00,
2013-02-17 22:10:00,18.5,-5.8,29.21,North,0,0.0,0.0,33,0.00,,---,0.00,VWS V14.00,2013-02-18 03:10:00,
2013-02-17 22:15:00,18.3,-6.0,29.21,North,0,0.0,0.0,33,0.00,,---,0.00,VWS V14.00,2013-02-18 03:15:00,
2013-02-17 22:20:00,18.1,-6.1,29.23,North,0,0.0,0.0,33,0.00,,---,0.00,VWS V14.00,2013-02-18 03:20:00,
2013-02-17 22:25:00,18.1,-6.1,29.23,North,0,0.0,0.0,33,0.00,,---,0.00,VWS V14.00,2013-02-18 03:25:00,
2013-02-17 22:31:00,17.8,-6.4,29.23,North,0,0.0,0.0,33,0.00,,---,0.00,VWS V14.00,2013-02-18 03:31:00,
2013-02-17 22:36:00,17.8,-6.4,29.23,North,0,0.0,0.0,33,0.00,,---,0.00,VWS V14.00,2013-02-18 03:36:00,
2013-02-17 22:41:00,17.6,-6.0,29.23,North,0,0.0,0.0,34,0.00,,---,0.00,VWS V14.00,2013-02-18 03:41:00,
2013-02-17 22:47:00,17.4,-6.1,29.23,North,0,0.0,0.0,34,0.00,,---,0.00,VWS V14.00,2013-02-18 03:47:00,
2013-02-17 22:52:00,17.2,-6.3,29.23,North,0,0.0,0.0,34,0.00,,---,0.00,VWS V14.00,2013-02-18 03:52:00,
2013-02-17 22:57:00,17.2,-6.3,29.23,North,0,0.0,0.0,34,0.00,,---,0.00,VWS V14.00,2013-02-18 03:57:00,
2013-02-17 23:02:00,17.1,-6.5,29.26,North,0,0.0,0.0,34,0.00,,---,0.00,VWS V14.00,2013-02-18 04:02:00,
2013-02-17 23:07:00,16.9,-6.6,29.26,North,0,0.0,0.0,34,0.00,,---,0.00,VWS V14.00,2013-02-18 04:07:00,
2013-02-17 23:13:00,16.9,-6.6,29.26,North,0,0.0,0.0,34,0.00,,---,0.00,VWS V14.00,2013-02-18 04:13:00,
2013-02-17 23:18:00,16.7,-6.8,29.26,North,0,0.0,0.0,34,0.00,,---,0.00,VWS V14.00,2013-02-18 04:18:00,
2013-02-17 23:23:00,16.7,-6.8,29.26,North,0,0.0,0.0,34,0.00,,---,0.00,VWS V14.00,2013-02-18 04:23:00,
2013-02-17 23:29:00,16.5,-6.9,29.26,North,0,0.0,0.0,34,0.00,,---,0.00,VWS V14.00,2013-02-18 04:29:00,
2013-02-17 23:34:00,16.5,-6.9,29.26,North,0,0.0,0.0,34,0.00,,---,0.00,VWS V14.00,2013-02-18 04:34:00,
2013-02-17 23:40:00,16.5,-6.9,29.26,North,0,0.0,0.0,34,0.00,,---,0.00,VWS V14.00,2013-02-18 04:40:00,
2013-02-17 23:45:00,16.5,-6.9,29.26,North,0,0.0,0.0,34,0.00,,---,0.00,VWS V14.00,2013-02-18 04:45:00,
2013-02-17 23:50:00,16.3,-7.1,29.26,North,0,0.0,0.0,34,0.00,,---,0.00,VWS V14.00,2013-02-18 04:50:00,
2013-02-17 23:55:00,16.3,-7.1,29.26,North,0,0.0,0.0,34,0.00,,---,0.00,VWS V14.00,2013-02-18 04:55:00,